Regional Weather Roundup
Issued by NWS

Home | Current Version | Previous Version | Graphics & Text | Print | Product List | Glossary On
Versions: 1 2 3 4 5 6 7 8 9 10 11 12 13 14 15 16 17 18 19 20 21 22 23 24 25 26 27 28 29 30 31 32 33 34 35 36 37 38 39 40 41 42 43 44 45 46 47 48 49 50
591
ASUS43 KIND 091209
RWRIN

WEATHER ROUNDUP FOR INDIANA
NATIONAL WEATHER SERVICE INDIANAPOLIS IN
700 AM EST FRI DEC 09 2016

NOTE: "FAIR" INDICATES FEW OR NO CLOUDS BELOW 12,000 FEET WITH NO
SIGNIFICANT WEATHER AND/OR OBSTRUCTIONS TO VISIBILITY.

* - STATION DOES NOT REPORT WEATHER SUCH AS PRECIPITATION OR FOG.

+ - STATION NOT QUALITY CONTROLLED BY THE NATIONAL WEATHER SERVICE.
    USE DATA WITH CAUTION...ESPECIALLY DEWPOINT AND RELATIVE
    HUMIDITY OBSERVATIONS.

INZ001>003-010>013-019-020-091300-
NORTHWEST INDIANA

CITY           SKY/WX    TMP DP  RH WIND       PRES   REMARKS
GARY /AIRPORT/ CLOUDY    25  19  80 W8        30.49R WCI  16
KNOX *+        CLOUDY    23   3  42 W14       30.45S WCI  11
LA PORTE +     FLURRIES  22  18  84 W12       30.44R WCI  11
6HR MIN TEMP:  22; 6HR MAX TEMP:  23;

MICHIGAN CITY+ FLURRIES  28  23  80 W8G16     30.44R WCI  20
MONTICELLO +   FLURRIES  22  15  74 W9        30.48S WCI  12
6HR MIN TEMP:  22; 6HR MAX TEMP:  22;

RENSSELAER +   FLURRIES  23  21  93 W9        30.49S WCI  13
VALPARAISO     CLOUDY    23  17  78 MISG      30.46R
6HR MIN TEMP:  23; 6HR MAX TEMP:  24;


$$

LMZ046-743>745-091300-
SOUTHERN LAKE MICHIGAN

STATION/POSITION TIME  TEMP    WIND        PRES    WAVE
                       AIR SEA DIR/SP/G            HT
                 (UTC) (F)     (DEG/KT/KT) (MB)    (FT)

$$

INZ004-005-014>016-021>024-091300-
NORTH CENTRAL INDIANA

CITY           SKY/WX    TMP DP  RH WIND       PRES   REMARKS
ELKHART        LGT SNOW  23  19  86 W8        30.40  VSB 1   WCI  14
GOSHEN         CLOUDY    22  17  81 W14       30.40R WCI   9
6HR MIN TEMP:  21; 6HR MAX TEMP:  22;

LOGANSPORT +   FLURRIES  21  18  86 W8        30.48S WCI  12
PERU/GRISSOM   CLOUDY    21  17  85 W14       30.44S WCI   8
6HR MIN TEMP:  20; 6HR MAX TEMP:  22; 6HR PCP: TRACE;

ROCHESTER +    CLEAR     23  21  93 W9        30.45R WCI  13
SOUTH BEND     PTCLDY    20  18  92 W12       30.41R WCI   8
6HR MIN TEMP:  20; 6HR MAX TEMP:  22; 6HR PCP:  0.04;

WARSAW +       CLOUDY    21  16  79 W8        30.42R WCI  12

$$

INZ006>009-017-018-025>027-091300-
NORTHEAST INDIANA

CITY           SKY/WX    TMP DP  RH WIND       PRES   REMARKS
ANGOLA *+      CLOUDY    21  19  93 W8        30.35R WCI  12
AUBURN +       CLOUDY    23  18  80 W10       30.40R WCI  12
FORT WAYNE     PTCLDY    21  16  81 W14       30.42R WCI   8
6HR MIN TEMP:  20; 6HR MAX TEMP:  22;

HUNTINGTON +   CLOUDY    21  16  83 W13       30.43R WCI   8
6HR MIN TEMP:  19; 6HR MAX TEMP:  21;

KENDALLVILLE + CLOUDY    22  19  86 W14       30.37S WCI   9

$$

INZ028-029-035-036-043>045-051>053-091300-
WEST CENTRAL INDIANA

CITY           SKY/WX    TMP DP  RH WIND       PRES   REMARKS
CRAWFORDSVL +  FLURRIES  19  17  93 SW7       30.51R WCI   9
6HR MIN TEMP:  19; 6HR MAX TEMP:  19;

GREENCASTLE +  FLURRIES  19  19 100 SW3       30.52R
LAFAYETTE      CLOUDY    22  17  81 W10       30.51R WCI  11
6HR MIN TEMP:  21; 6HR MAX TEMP:  22; 6HR PCP: TRACE;

TERRE HAUTE    CLOUDY    22  14  71 W7        30.56R WCI  13
6HR MIN TEMP:  21; 6HR MAX TEMP:  22; 6HR PCP: TRACE;


$$

INZ030>032-037>040-046>048-054>057-064-065-091300-
CENTRAL INDIANA

CITY           SKY/WX    TMP DP  RH WIND       PRES   REMARKS
CP ATTERBURY + FLURRIES  23  16  74 W8        30.54R WCI  14
COLUMBUS       FLURRIES  21  18  86 W6        30.54  WCI  14
FISHERS *+     CLOUDY    19  18  93 W5        30.50R WCI  13
FRANKFORT +    FLURRIES  23  19  83 W13       30.50R WCI  12
6HR MIN TEMP:  23; 6HR MAX TEMP:  24;

GREENWOOD *+   CLOUDY    22  17  84 W6        30.51R WCI  14
6HR MIN TEMP:  21; 6HR MAX TEMP:  22;

INDIANAPOLIS   FLURRIES  21  16  81 W12       30.50R WCI   9
6HR MIN TEMP:  20; 6HR MAX TEMP:  21; 6HR PCP: TRACE;

-EAGLE CREEK   CLOUDY    21  15  78 W8        30.49S WCI  11
6HR MIN TEMP:  21; 6HR MAX TEMP:  22; 6HR PCP: TRACE;

KOKOMO +       FLURRIES  19  16  88 W13       30.47R WCI   6
6HR MIN TEMP:  19; 6HR MAX TEMP:  21; 6HR PCP: TRACE;

MARION +       CLEAR     17  14  89 W12       30.46S WCI   4
MT COMFORT *+  CLOUDY    19  14  79 W9        30.49R WCI   9
SHELBYVILLE    FLURRIES  22  15  75 W10       30.50R WCI  11
6HR MIN TEMP:  21; 6HR MAX TEMP:  22; 6HR PCP: TRACE;

ZIONSVILLE +   FLURRIES  19  16  86 W10       30.49R WCI   8
6HR MIN TEMP:  19; 6HR MAX TEMP:  20;


$$

INZ033-034-041-042-049-050-058-059-091300-
EAST CENTRAL INDIANA

CITY           SKY/WX    TMP DP  RH WIND       PRES   REMARKS
MUNCIE         CLEAR     19  14  81 W9        30.46R WCI   8
6HR MIN TEMP:  19; 6HR MAX TEMP:  22; 6HR PCP: TRACE;


$$

INZ060-061-067>069-081>083-085>088-091300-
SOUTHWEST INDIANA

CITY           SKY/WX    TMP DP  RH WIND       PRES   REMARKS
EVANSVILLE     CLOUDY    23  13  65 NW7       30.60S WCI  15
6HR MIN TEMP:  22; 6HR MAX TEMP:  27;

HUNTINGBURG *+ CLOUDY    21  14  73 NW8       30.59R WCI  12
6HR MIN TEMP:  21; 6HR MAX TEMP:  25; 6HR PCP: TRACE;

WASHINGTON +   CLOUDY    22  16  75 W8        30.58S WCI  13
6HR MIN TEMP:  22; 6HR MAX TEMP:  24;


$$

INZ062-063-066-070>080-084-089>092-091300-
SOUTH CENTRAL AND SOUTHEAST INDIANA

CITY           SKY/WX    TMP DP  RH WIND       PRES   REMARKS
BLOOMINGTON    CLOUDY    20  11  68 W8        30.53R WCI  10
6HR MIN TEMP:  20; 6HR MAX TEMP:  21; 6HR PCP: TRACE;

MADISON *+     CLOUDY    23  12  63 W6        30.55R WCI  16
NORTH VERNON + FLURRIES  23  19  86 W9        30.53R WCI  13
SEYMOUR +      CLOUDY    23  12  63 NW8       30.55R WCI  14

$$





USA.gov is the U.S. government's official web portal to all federal, state and local government web resources and services.